Weather History for Ruidoso, NM

Change the Weather History Date:

Sunday, November 4, 2012

  Actual Average Record
Temperature  
Mean Temperature 53 °F -  
Max Temperature 64 °F 56 °F 73 °F (2007)
Min Temperature 42 °F 36 °F 32 °F (2002)
Degree Days  
Heating Degree Days 12    
Growing Degree Days 3 (Base 50)    
Moisture  
Dew Point 22 °F    
Average Humidity 32    
Maximum Humidity 53    
Minimum Humidity 18    
Precipitation  
Precipitation 0.00 in - - ()
Sea Level Pressure  
Sea Level Pressure 30.32 in    
Wind  
Wind Speed 7 mph (WNW)    
Max Wind Speed 17 mph    
Max Gust Speed 28 mph    
Visibility 10 miles    
Events Rain    
Averages and records for this station are not official NWS values.
T = Trace of Precipitation, MM = Missing Value Source: NWS Daily Summary

Daily Weather History Graph

Daily Weather History Graph

Search for Another Location

Airport:

Trip Planner

Search our weather history database for the weather conditions in past years. The results will help you decide how hot, cold, wet, or windy it might be!

Date:

Astronomy

Nov. 04, 2012 Rise Set
Actual Time 6:23 AM MST 5:06 PM MST
Civil Twilight 5:58 AM MST 5:32 PM MST
Nautical Twilight 5:28 AM MST 6:02 PM MST
Astronomical Twilight 4:59 AM MST 6:31 PM MST
Moon 9:49 PM MST (11/4) 11:06 AM MST (11/4)
Length of Visible Light 11h 34m
Length of Day
10h 42m
Waning Gibbous, 71% of the Moon is Illuminated
Nov 4
Waning Gibbous
Nov 6
Last Quarter
Nov 13
New
Nov 20
First Quarter
Nov 28
Full

Hourly Weather History & Observations

Time (MST) Temp. Windchill Dew Point Humidity Pressure Visibility Wind Dir Wind Speed Gust Speed Precip Events Conditions
12:15 AM 44.6 °F 41.4 °F 24.8 °F 46% 30.30 in 10.0 mi WSW 5.8 mph - N/A Rain Light Rain
12:35 AM 44.6 °F 41.4 °F 24.8 °F 46% 30.30 in 10.0 mi WNW 5.8 mph - N/A Rain Light Rain
12:55 AM 44.6 °F 40.7 °F 24.8 °F 46% 30.30 in 10.0 mi West 6.9 mph - N/A Rain Light Rain
1:15 AM 42.8 °F 39.3 °F 24.8 °F 49% 30.30 in 10.0 mi West 5.8 mph - N/A Rain Light Rain
1:35 AM 44.6 °F 40.7 °F 24.8 °F 46% 30.30 in 10.0 mi West 6.9 mph - N/A Rain Rain
1:55 AM 44.6 °F 40.2 °F 24.8 °F 46% 30.31 in 10.0 mi West 8.1 mph - N/A Rain Light Rain
1:15 AM 44.6 °F 41.4 °F 24.8 °F 46% 30.31 in 10.0 mi SW 5.8 mph - N/A Rain Light Rain
1:35 AM 42.8 °F 41.1 °F 24.8 °F 49% 30.31 in 10.0 mi West 3.5 mph - N/A Rain Light Rain
1:55 AM 42.8 °F 39.3 °F 24.8 °F 49% 30.31 in 10.0 mi West 5.8 mph - N/A Rain Rain
2:15 AM 44.6 °F 39.7 °F 24.8 °F 46% 30.31 in 3.0 mi West 9.2 mph - N/A Rain Light Rain
2:35 AM 46.4 °F 41.9 °F 24.8 °F 43% 30.31 in 2.0 mi West 9.2 mph - N/A Rain Light Rain
2:55 AM 44.6 °F 42.2 °F 24.8 °F 46% 30.30 in 10.0 mi SW 4.6 mph - N/A Rain Light Rain
3:15 AM 44.6 °F 41.4 °F 24.8 °F 46% 30.30 in 10.0 mi WSW 5.8 mph - N/A Rain Light Rain
3:35 AM 44.6 °F 40.7 °F 24.8 °F 46% 30.30 in 10.0 mi West 6.9 mph - N/A Rain Light Rain
3:55 AM 46.4 °F 43.5 °F 26.6 °F 46% 30.31 in 10.0 mi West 5.8 mph - N/A Rain Light Rain
4:15 AM 44.6 °F 41.4 °F 26.6 °F 49% 30.31 in 10.0 mi SW 5.8 mph - N/A Rain Light Rain
4:35 AM 46.4 °F 45.2 °F 26.6 °F 46% 30.31 in 10.0 mi West 3.5 mph - N/A Rain Light Rain
4:55 AM 46.4 °F 42.9 °F 26.6 °F 46% 30.31 in 10.0 mi West 6.9 mph - N/A Rain Light Rain
5:15 AM 46.4 °F 43.5 °F 26.6 °F 46% 30.31 in 10.0 mi WSW 5.8 mph - N/A Rain Light Rain
5:35 AM 42.8 °F 38.6 °F 26.6 °F 53% 30.31 in 10.0 mi West 6.9 mph - N/A Rain Light Rain
5:55 AM 46.4 °F 43.5 °F 26.6 °F 46% 30.31 in 10.0 mi WSW 5.8 mph - N/A Rain Light Rain
6:15 AM 44.6 °F 43.1 °F 26.6 °F 49% 30.32 in 10.0 mi West 3.5 mph - N/A Rain Light Rain
6:35 AM 44.6 °F 40.7 °F 26.6 °F 49% 30.32 in 10.0 mi West 6.9 mph - N/A Rain Light Rain
6:55 AM 48.2 °F - 26.6 °F 43% 30.33 in 10.0 mi NW 3.5 mph - N/A Rain Light Rain
7:15 AM 48.2 °F - 26.6 °F 43% 30.33 in 10.0 mi WNW 5.8 mph - N/A Rain Light Rain
7:35 AM 50.0 °F - 26.6 °F 40% 30.34 in 10.0 mi NW 3.5 mph - N/A Rain Light Rain
7:55 AM 51.8 °F - 26.6 °F 38% 30.34 in 10.0 mi NW 3.5 mph - N/A Rain Light Rain
8:15 AM 53.6 °F - 26.6 °F 35% 30.34 in 10.0 mi Calm Calm - N/A Rain Light Rain
8:35 AM 55.4 °F - 26.6 °F 33% 30.35 in 10.0 mi NNW 4.6 mph - N/A Rain Light Rain
8:55 AM 55.4 °F - 28.4 °F 36% 30.35 in 10.0 mi NE 3.5 mph - N/A Rain Light Rain
9:15 AM 57.2 °F - 28.4 °F 33% 30.36 in 10.0 mi NE 4.6 mph - N/A Rain Light Rain
9:35 AM 59.0 °F - 26.6 °F 29% 30.36 in 10.0 mi Calm Calm - N/A Rain Light Rain
9:55 AM 60.8 °F - 26.6 °F 27% 30.35 in 10.0 mi North 6.9 mph - N/A Rain Light Rain
10:15 AM 62.6 °F - 24.8 °F 24% 30.35 in 10.0 mi NNW 13.8 mph 18.4 mph N/A Rain Light Rain
10:35 AM 62.6 °F - 26.6 °F 26% 30.34 in 10.0 mi North 12.7 mph 19.6 mph N/A Rain Light Rain
10:55 AM 62.6 °F - 24.8 °F 24% 30.34 in 10.0 mi NW 11.5 mph 20.7 mph N/A Rain Light Rain
11:15 AM 64.4 °F - 23.0 °F 21% 30.34 in 10.0 mi NW 13.8 mph 21.9 mph N/A Rain Light Rain
11:35 AM 64.4 °F - 23.0 °F 21% 30.33 in 10.0 mi North 13.8 mph 21.9 mph N/A Rain Light Rain
11:55 AM 64.4 °F - 23.0 °F 21% 30.32 in 10.0 mi North 13.8 mph 25.3 mph N/A Rain Rain
12:15 PM 64.4 °F - 23.0 °F 21% 30.31 in 10.0 mi WNW 17.3 mph 23.0 mph N/A Rain Rain
12:35 PM 64.4 °F - 23.0 °F 21% 30.31 in 10.0 mi NW 6.9 mph 25.3 mph N/A Rain Rain
12:55 PM 64.4 °F - 23.0 °F 21% 30.30 in 10.0 mi NW 16.1 mph 25.3 mph N/A Rain Rain
1:15 PM 64.4 °F - 21.2 °F 19% 30.30 in 10.0 mi NW 16.1 mph 26.5 mph N/A Rain Rain
1:35 PM 64.4 °F - 23.0 °F 21% 30.30 in 10.0 mi NNW 11.5 mph 21.9 mph N/A Rain Rain
1:55 PM 64.4 °F - 23.0 °F 21% 30.29 in 10.0 mi NW 16.1 mph 21.9 mph N/A Rain Rain
2:15 PM 64.4 °F - 21.2 °F 19% 30.29 in 10.0 mi NW 16.1 mph 27.6 mph N/A Rain Rain
2:35 PM 64.4 °F - 19.4 °F 18% 30.29 in 10.0 mi WNW 17.3 mph 21.9 mph N/A Rain Rain
2:55 PM 64.4 °F - 19.4 °F 18% 30.29 in 10.0 mi NW 15.0 mph 24.2 mph N/A Rain Rain
3:15 PM 62.6 °F - 19.4 °F 19% 30.29 in 10.0 mi NW 10.4 mph 17.3 mph N/A Rain Rain
3:35 PM 62.6 °F - 17.6 °F 18% 30.29 in 10.0 mi WNW 11.5 mph 18.4 mph N/A Rain Rain
3:55 PM 62.6 °F - 19.4 °F 19% 30.29 in 10.0 mi NW 8.1 mph 16.1 mph N/A Rain Rain
4:15 PM 60.8 °F - 17.6 °F 19% 30.29 in 10.0 mi WNW 13.8 mph 18.4 mph N/A Rain Rain
4:35 PM 59.0 °F - 17.6 °F 20% 30.29 in 10.0 mi WNW 11.5 mph 17.3 mph N/A Rain Rain
5:15 PM 57.2 °F - 15.8 °F 20% 30.30 in 10.0 mi WNW 9.2 mph - N/A Rain Rain
5:55 PM 53.6 °F - 15.8 °F 22% 30.30 in 10.0 mi West 9.2 mph - N/A Rain Light Rain
6:15 PM 53.6 °F - 15.8 °F 22% 30.31 in 10.0 mi WSW 8.1 mph - N/A Rain Light Rain
6:35 PM 50.0 °F - 14.0 °F 24% 30.31 in 10.0 mi West 8.1 mph - N/A Rain Light Rain
6:55 PM 51.8 °F - 14.0 °F 22% 30.31 in 10.0 mi West 9.2 mph - N/A Rain Light Rain
7:15 PM 53.6 °F - 14.0 °F 21% 30.32 in 10.0 mi WNW 4.6 mph - N/A Rain Light Rain
7:35 PM 53.6 °F - 14.0 °F 21% 30.32 in 10.0 mi West 5.8 mph - N/A Rain Light Rain
7:55 PM 53.6 °F - 15.8 °F 22% 30.32 in 10.0 mi West 4.6 mph - N/A Rain Light Rain
8:15 PM 50.0 °F - 14.0 °F 24% 30.32 in 10.0 mi SW 5.8 mph - N/A Rain Light Rain
8:35 PM 50.0 °F - 15.8 °F 26% 30.32 in 10.0 mi WSW 9.2 mph - N/A Rain Light Rain
8:55 PM 48.2 °F - 15.8 °F 27% 30.32 in 10.0 mi West 8.1 mph - N/A Rain Light Rain
9:15 PM 51.8 °F - 15.8 °F 24% 30.33 in 10.0 mi West 5.8 mph - N/A Rain Light Rain
9:35 PM 50.0 °F - 15.8 °F 26% 30.33 in 10.0 mi WNW 6.9 mph - N/A Rain Light Rain
9:55 PM 53.6 °F - 15.8 °F 22% 30.33 in 10.0 mi NW 9.2 mph 17.3 mph N/A Rain Light Rain
10:15 PM 50.0 °F - 15.8 °F 26% 30.33 in 10.0 mi NW 8.1 mph - N/A Rain Light Rain
10:35 PM 50.0 °F - 15.8 °F 26% 30.33 in 10.0 mi NW 4.6 mph - N/A Rain Light Rain
10:55 PM 50.0 °F - 15.8 °F 26% 30.33 in 10.0 mi WNW 8.1 mph - N/A Rain Light Rain